Vorticity
nan nan nan nan nan nan nan nan nan nan nan nan nan nan nan nan nan nan nan nan nan nan nan nan nan nan nan nan nan nan nan nan nan nan nan nan nan nan
nan 10 7 7 9 8 8 10 9 9 9 10 7 8 8 8 8 9 8 12 16 12 13 11 10 11 12 11 8 7 6 6 8 12 11 8 10 nan
nan 8 9 10 7 9 9 8 9 8 10 7 8 8 7 9 10 9 11 13 14 11 12 21 22 14 9 7 10 9 6 6 8 10 11 9 10 nan
nan 9 10 9 7 10 11 9 9 10 10 9 11 10 9 11 10 11 11 10 8 10 9 19 20 9 6 7 8 9 7 6 8 11 12 9 10 nan
nan 8 8 8 12 12 9 12 11 10 10 13 10 10 11 10 11 12 11 11 9 11 17 18 15 6 2 5 7 8 8 8 6 10 14 12 10 nan
nan 7 10 14 10 10 11 10 10 11 11 10 9 9 10 11 11 11 11 11 9 12 17 16 16 17 16 11 6 6 10 8 7 8 14 18 14 nan
nan 11 10 13 13 8 6 7 9 10 8 10 10 9 7 9 11 11 10 9 10 12 13 11 14 16 21 15 15 14 9 6 9 7 12 20 15 nan
nan 10 12 10 10 11 9 7 6 5 8 8 7 7 8 9 10 10 10 10 10 10 10 10 11 12 11 18 23 11 5 5 7 7 13 19 11 nan
nan 9 10 13 10 8 13 11 15 16 12 8 7 7 9 8 9 10 10 9 10 9 8 10 9 10 9 13 8 8 8 4 6 12 19 18 13 nan
nan 9 10 8 13 10 10 11 11 14 13 12 10 8 7 6 7 10 11 13 13 11 11 11 10 9 9 7 7 12 8 6 5 16 18 10 10 nan
nan 10 15 11 4 8 11 11 11 11 9 6 11 13 13 14 11 10 11 11 11 11 14 14 13 11 9 11 13 15 13 8 4 8 16 15 10 nan
nan 16 11 8 3 7 11 11 11 8 8 12 14 15 17 19 21 14 9 10 10 11 10 11 12 11 13 14 14 16 15 12 3 12 21 11 2 nan
nan 10 4 4 6 9 13 12 6 9 13 14 13 13 12 13 13 12 13 13 10 8 8 9 9 11 10 10 12 14 13 12 8 11 19 16 6 nan
nan 8 2 1 9 13 14 8 9 16 13 12 12 11 11 11 9 10 13 14 12 10 9 8 9 9 9 8 10 13 14 11 10 10 14 13 9 nan
nan 9 8 7 11 12 12 11 12 11 11 11 11 10 10 9 10 12 12 14 19 19 13 10 8 10 10 10 9 9 13 14 10 10 13 10 7 nan
nan 6 12 17 15 12 8 11 12 10 10 11 10 11 11 11 11 11 11 12 19 21 17 16 10 9 10 9 10 10 10 12 13 12 9 9 10 nan
nan 11 10 11 12 13 13 11 10 10 11 10 11 11 10 10 11 11 11 11 12 11 17 20 16 13 11 10 11 12 10 9 12 14 12 9 9 nan
nan 9 10 10 9 9 10 10 10 10 10 10 10 10 11 11 10 11 11 11 11 10 10 11 19 20 13 12 12 14 13 10 10 8 9 11 12 nan
nan 8 9 10 10 10 10 10 10 11 10 10 9 11 10 10 11 12 10 11 10 10 11 11 12 13 17 16 7 12 16 15 16 10 10 9 9 nan
nan 9 11 10 10 10 10 10 10 10 11 10 10 11 11 10 11 11 10 11 9 12 11 11 10 9 10 13 12 8 12 20 18 14 11 8 10 nan
nan 10 9 9 10 10 10 11 10 9 11 10 10 10 10 11 10 10 10 10 12 12 10 10 10 12 13 13 13 9 6 10 15 17 19 16 11 nan
nan 9 10 12 12 11 11 10 10 10 9 10 10 10 10 10 10 9 10 10 12 11 12 10 12 13 15 14 14 14 10 6 6 8 12 15 17 nan
nan nan nan nan nan nan nan nan nan nan nan nan nan nan nan nan nan nan nan nan nan nan nan nan nan nan nan nan nan nan nan nan nan nan nan nan nan nan
CAPE
99 106 63 64 80 53 46 67 80 75 29 41 75 64 86 80 68 62 60 33 43 38 19 3 0 3 0 11 14 0 0 0 4 14 23 9 5 15
101 51 43 73 53 45 38 94 71 70 53 39 34 61 47 19 35 59 49 66 44 48 40 20 13 9 10 40 14 0 0 0 0 7 11 11 1 13
57 35 58 51 44 52 80 56 70 75 77 34 34 30 27 39 30 45 50 61 63 63 61 62 53 62 22 0 0 0 0 0 0 3 22 15 0 3
28 27 40 27 39 24 24 17 24 23 52 35 11 34 30 23 46 54 47 23 49 47 77 51 34 14 3 0 8 3 0 0 0 2 6 6 0 1
26 29 24 20 7 5 5 2 2 5 22 26 23 31 33 38 42 42 45 39 39 57 65 42 35 26 30 0 0 9 5 1 0 2 9 0 0 3
29 18 5 2 1 0 0 1 3 7 10 18 19 36 33 46 48 55 46 71 58 30 37 35 46 3 26 14 14 8 18 7 5 5 7 0 0 0
22 4 1 0 0 0 0 3 8 9 15 15 32 44 56 44 58 52 61 58 35 87 72 83 94 130 66 39 0 38 1 0 0 4 3 1 0 0
4 1 0 2 1 0 0 0 6 14 25 72 50 39 19 34 42 61 73 63 44 81 49 93 7 88 43 70 47 0 0 0 0 0 3 0 0 0
2 1 1 0 1 1 1 3 7 25 8 35 35 45 53 29 32 45 46 59 66 53 55 52 48 43 40 21 1 0 0 0 0 1 2 0 0 2
4 3 3 3 0 0 0 3 3 5 8 5 17 17 23 23 25 42 42 31 35 48 45 65 72 71 82 62 22 17 0 0 0 2 1 3 0 2
6 4 0 0 0 0 1 4 3 4 7 14 3 9 19 16 15 45 84 73 87 35 51 60 75 72 97 84 63 14 3 0 0 2 4 4 0 0
6 3 0 0 0 0 2 4 9 8 1 2 8 14 19 24 14 7 56 64 47 45 34 46 30 30 56 73 77 87 40 0 0 2 5 6 0 7
4 3 7 0 0 0 0 3 7 1 3 11 22 23 29 22 24 35 39 54 61 36 33 3 20 38 20 18 44 91 79 11 8 1 6 4 0 7
8 7 8 0 0 0 0 0 0 0 29 20 24 24 21 27 20 35 40 70 71 36 27 28 31 33 20 30 23 34 54 47 39 10 1 5 5 2
8 3 0 0 0 0 0 0 0 8 7 16 18 18 18 23 22 38 44 37 58 38 11 21 38 25 28 37 27 38 19 30 62 48 38 7 11 14
4 7 0 0 0 0 1 4 7 8 3 8 14 17 30 28 30 33 42 31 22 21 7 19 14 26 46 30 31 32 36 32 35 68 62 57 40 37
0 2 9 12 9 7 7 5 6 5 5 2 10 16 19 17 17 29 30 31 40 36 40 19 11 21 23 23 47 20 16 20 38 53 27 10 17 35
1 9 14 19 20 14 10 9 10 6 5 3 6 7 7 14 11 19 20 20 18 14 17 26 37 13 16 14 6 53 14 26 32 21 8 26 32 40
8 12 23 26 22 10 8 7 7 5 0 9 9 11 10 8 27 10 16 15 11 10 9 25 33 6 15 24 3 0 8 27 50 39 20 25 16 22
10 12 14 21 17 11 8 6 7 10 11 7 10 12 12 13 10 8 9 10 10 5 6 5 7 5 7 8 35 4 0 7 51 45 40 45 0 0
20 19 45 21 13 13 16 13 15 13 8 8 12 12 12 14 11 5 12 12 4 4 5 4 7 0 1 5 14 9 3 0 0 2 17 29 22 21
28 24 32 20 25 14 21 20 19 21 18 12 12 13 12 12 10 6 7 8 6 5 3 5 7 7 15 19 28 1 8 4 0 0 0 0 2 19
41 35 42 47 31 21 16 18 17 18 12 14 10 12 6 9 14 9 7 4 3 2 1 1 6 10 23 3 0 25 2 3 5 3 2 0 0 0